QPF
0.00 0.00 0.00 0.00 0.00 0.00 0.00 0.00 0.00 0.00 0.00 0.01 0.00 0.00 0.00 0.00 0.00 0.00 0.00 0.00 0.00 0.00 0.00 0.00 0.00 0.00 0.00 0.00 0.00 0.00 0.00 0.00 0.00 0.00 0.00 0.00 0.00 0.00 0.00 0.00 0.00 0.00 0.00 0.00
0.00 0.00 0.00 0.00 0.00 0.00 0.00 0.01 0.00 0.00 0.00 0.00 0.00 0.00 0.00 0.00 0.00 0.00 0.00 0.00 0.00 0.00 0.00 0.00 0.00 0.00 0.00 0.00 0.00 0.00 0.00 0.00 0.00 0.00 0.00 0.00 0.00 0.00 0.00 0.00 0.00 0.00 0.00 0.00
0.00 0.00 0.00 0.00 0.00 0.00 0.00 0.00 0.00 0.00 0.00 0.00 0.00 0.00 0.00 0.00 0.00 0.00 0.00 0.00 0.00 0.00 0.00 0.00 0.00 0.00 0.00 0.00 0.00 0.00 0.00 0.00 0.00 0.00 0.00 0.00 0.00 0.00 0.00 0.00 0.00 0.00 0.00 0.00
0.00 0.00 0.00 0.00 0.00 0.00 0.00 0.00 0.00 0.00 0.00 0.00 0.00 0.00 0.00 0.00 0.00 0.00 0.00 0.00 0.00 0.00 0.00 0.00 0.00 0.00 0.00 0.00 0.00 0.00 0.00 0.00 0.00 0.00 0.00 0.00 0.00 0.00 0.00 0.00 0.00 0.00 0.00 0.00
0.00 0.00 0.00 0.00 0.00 0.00 0.00 0.00 0.00 0.00 0.00 0.00 0.00 0.00 0.00 0.00 0.00 0.00 0.00 0.00 0.00 0.00 0.00 0.00 0.00 0.00 0.00 0.00 0.00 0.00 0.00 0.00 0.00 0.00 0.00 0.00 0.00 0.00 0.00 0.00 0.00 0.00 0.00 0.00
0.00 0.00 0.00 0.00 0.00 0.00 0.00 0.00 0.00 0.00 0.00 0.00 0.00 0.00 0.00 0.00 0.00 0.00 0.00 0.00 0.00 0.00 0.00 0.00 0.00 0.00 0.00 0.00 0.00 0.00 0.00 0.00 0.00 0.00 0.00 0.00 0.00 0.00 0.00 0.00 0.00 0.00 0.00 0.00
0.00 0.00 0.00 0.00 0.00 0.00 0.00 0.00 0.00 0.00 0.00 0.00 0.00 0.00 0.00 0.00 0.00 0.00 0.00 0.00 0.00 0.00 0.00 0.00 0.00 0.00 0.00 0.00 0.00 0.00 0.00 0.00 0.00 0.00 0.00 0.00 0.00 0.00 0.00 0.00 0.00 0.00 0.00 0.01
0.00 0.00 0.00 0.00 0.00 0.00 0.00 0.00 0.00 0.00 0.00 0.00 0.00 0.00 0.00 0.00 0.00 0.00 0.00 0.00 0.00 0.00 0.00 0.00 0.00 0.00 0.00 0.00 0.00 0.00 0.00 0.00 0.00 0.00 0.00 0.00 0.00 0.00 0.00 0.00 0.00 0.00 0.00 0.07
0.00 0.00 0.00 0.00 0.00 0.00 0.00 0.00 0.00 0.00 0.00 0.00 0.00 0.00 0.00 0.00 0.00 0.00 0.00 0.00 0.00 0.00 0.00 0.00 0.00 0.00 0.00 0.00 0.00 0.00 0.00 0.00 0.00 0.00 0.00 0.00 0.00 0.00 0.00 0.00 0.00 0.00 0.00 0.02
0.00 0.00 0.00 0.00 0.00 0.00 0.00 0.00 0.00 0.00 0.00 0.00 0.00 0.00 0.00 0.00 0.00 0.00 0.00 0.00 0.00 0.00 0.00 0.00 0.00 0.00 0.00 0.00 0.00 0.00 0.00 0.00 0.00 0.00 0.00 0.00 0.00 0.00 0.00 0.00 0.00 0.00 0.02 0.02
0.00 0.00 0.00 0.00 0.00 0.00 0.00 0.00 0.00 0.00 0.00 0.00 0.00 0.00 0.00 0.00 0.00 0.00 0.00 0.00 0.00 0.00 0.00 0.00 0.00 0.00 0.00 0.00 0.00 0.00 0.00 0.00 0.00 0.00 0.00 0.00 0.00 0.00 0.00 0.00 0.01 0.02 0.01 0.03
0.00 0.00 0.00 0.00 0.00 0.00 0.00 0.00 0.00 0.00 0.00 0.00 0.00 0.00 0.00 0.00 0.00 0.00 0.00 0.00 0.00 0.00 0.00 0.00 0.00 0.00 0.00 0.00 0.00 0.00 0.00 0.00 0.00 0.00 0.00 0.00 0.00 0.00 0.01 0.02 0.01 0.01 0.00 0.00
0.00 0.00 0.00 0.00 0.00 0.00 0.00 0.00 0.00 0.00 0.00 0.00 0.00 0.00 0.00 0.00 0.00 0.00 0.00 0.00 0.00 0.00 0.00 0.00 0.00 0.00 0.00 0.00 0.00 0.00 0.00 0.00 0.00 0.00 0.00 0.00 0.00 0.00 0.01 0.00 0.00 0.00 0.00 0.00
0.00 0.00 0.00 0.00 0.00 0.00 0.00 0.00 0.00 0.00 0.00 0.00 0.00 0.00 0.00 0.00 0.00 0.00 0.00 0.00 0.00 0.00 0.00 0.00 0.00 0.00 0.00 0.00 0.00 0.00 0.00 0.00 0.00 0.00 0.00 0.00 0.00 0.00 0.00 0.00 0.00 0.00 0.00 0.00
0.00 0.00 0.00 0.00 0.00 0.00 0.00 0.00 0.00 0.00 0.00 0.00 0.00 0.00 0.00 0.00 0.00 0.00 0.00 0.00 0.00 0.00 0.00 0.00 0.00 0.00 0.00 0.00 0.00 0.00 0.00 0.00 0.00 0.00 0.00 0.00 0.00 0.00 0.00 0.00 0.00 0.00 0.00 0.00
0.00 0.00 0.00 0.00 0.00 0.00 0.00 0.00 0.00 0.00 0.00 0.00 0.00 0.00 0.00 0.00 0.00 0.00 0.00 0.00 0.00 0.00 0.00 0.00 0.00 0.00 0.00 0.00 0.00 0.00 0.00 0.00 0.00 0.00 0.00 0.00 0.00 0.00 0.00 0.00 0.00 0.00 0.00 0.00
0.00 0.00 0.00 0.00 0.00 0.00 0.00 0.00 0.00 0.00 0.00 0.00 0.00 0.00 0.00 0.00 0.00 0.00 0.00 0.00 0.00 0.00 0.00 0.00 0.00 0.00 0.00 0.00 0.00 0.00 0.00 0.00 0.00 0.00 0.00 0.00 0.00 0.00 0.00 0.00 0.00 0.00 0.00 0.00
0.00 0.00 0.00 0.00 0.00 0.00 0.00 0.00 0.00 0.00 0.00 0.00 0.00 0.00 0.00 0.00 0.00 0.00 0.00 0.00 0.00 0.00 0.00 0.00 0.00 0.00 0.00 0.00 0.00 0.00 0.00 0.00 0.00 0.00 0.00 0.00 0.00 0.00 0.00 0.00 0.00 0.00 0.00 0.00
0.00 0.00 0.00 0.00 0.00 0.00 0.00 0.00 0.00 0.00 0.00 0.00 0.00 0.00 0.00 0.00 0.00 0.00 0.00 0.00 0.00 0.00 0.00 0.00 0.00 0.00 0.00 0.00 0.00 0.00 0.00 0.00 0.00 0.00 0.00 0.00 0.00 0.00 0.00 0.00 0.00 0.00 0.00 0.00
0.00 0.00 0.00 0.00 0.00 0.00 0.00 0.00 0.00 0.00 0.00 0.00 0.00 0.00 0.00 0.00 0.00 0.00 0.00 0.00 0.00 0.00 0.00 0.00 0.00 0.00 0.00 0.00 0.00 0.00 0.00 0.00 0.00 0.00 0.00 0.00 0.00 0.00 0.00 0.00 0.00 0.00 0.00 0.00
0.00 0.00 0.00 0.00 0.00 0.00 0.00 0.00 0.00 0.00 0.00 0.00 0.00 0.00 0.00 0.00 0.00 0.00 0.00 0.00 0.00 0.00 0.00 0.00 0.00 0.00 0.00 0.00 0.00 0.00 0.00 0.00 0.00 0.00 0.00 0.00 0.00 0.00 0.00 0.00 0.00 0.00 0.00 0.00
0.00 0.00 0.00 0.00 0.00 0.00 0.00 0.00 0.00 0.00 0.00 0.00 0.00 0.00 0.00 0.00 0.00 0.00 0.00 0.00 0.00 0.00 0.00 0.00 0.00 0.00 0.00 0.00 0.00 0.00 0.00 0.00 0.00 0.00 0.00 0.00 0.00 0.00 0.00 0.00 0.00 0.00 0.00 0.00
0.00 0.00 0.00 0.00 0.00 0.00 0.00 0.00 0.00 0.00 0.00 0.00 0.00 0.00 0.00 0.00 0.00 0.00 0.00 0.00 0.00 0.00 0.00 0.00 0.00 0.00 0.00 0.00 0.00 0.00 0.00 0.00 0.00 0.00 0.00 0.00 0.00 0.00 0.00 0.00 0.00 0.00 0.00 0.00
0.00 0.00 0.00 0.00 0.00 0.00 0.00 0.00 0.00 0.00 0.00 0.00 0.00 0.00 0.00 0.00 0.00 0.00 0.00 0.00 0.00 0.00 0.00 0.00 0.00 0.00 0.00 0.00 0.00 0.00 0.00 0.00 0.00 0.00 0.00 0.00 0.00 0.00 0.00 0.00 0.00 0.00 0.00 0.00
0.00 0.00 0.00 0.00 0.00 0.00 0.00 0.00 0.00 0.00 0.00 0.00 0.00 0.00 0.00 0.00 0.00 0.00 0.00 0.00 0.00 0.00 0.00 0.00 0.00 0.00 0.00 0.00 0.00 0.00 0.00 0.00 0.00 0.00 0.00 0.00 0.00 0.00 0.00 0.00 0.00 0.00 0.00 0.00
0.00 0.00 0.00 0.00 0.00 0.00 0.00 0.00 0.00 0.00 0.00 0.00 0.00 0.00 0.00 0.00 0.00 0.00 0.00 0.00 0.00 0.00 0.00 0.00 0.00 0.00 0.00 0.00 0.00 0.00 0.00 0.00 0.00 0.00 0.00 0.00 0.00 0.00 0.00 0.00 0.00 0.00 0.00 0.00
MSLP
1002.23 1002.94 1002.91 1003.75 1003.97 1004.53 1006.29 1006.73 1006.72 1005.19 1006.04 1005.50 1005.86 1006.83 1007.75 1008.25 1008.92 1009.87 1010.68 1011.42 1012.04 1012.33 1013.03 1013.67 1014.12 1014.52 1014.99 1015.27 1015.85 1016.34 1016.57 1016.86 1017.27 1017.69 1018.09 1018.22 1018.36 1018.05 1017.95 1017.93 1017.82 1017.53 1017.37 1017.31
1002.46 1002.22 1002.03 1002.25 1003.24 1003.16 1005.58 1006.79 1006.05 1005.42 1004.66 1005.40 1005.02 1006.14 1006.76 1007.11 1007.55 1008.20 1009.14 1010.15 1010.78 1011.55 1012.44 1012.93 1013.51 1014.01 1014.41 1014.91 1015.37 1015.92 1016.21 1016.46 1016.93 1017.33 1017.55 1017.68 1017.82 1017.81 1017.84 1017.71 1017.49 1017.07 1016.89 1017.00
1001.87 1001.48 1001.29 1001.35 1001.75 1003.26 1004.54 1004.90 1004.82 1004.22 1003.25 1003.75 1004.33 1006.10 1006.26 1006.16 1006.47 1007.27 1007.99 1008.66 1009.35 1010.22 1011.30 1012.12 1012.79 1013.20 1013.69 1014.24 1014.75 1015.28 1015.72 1016.10 1016.48 1016.90 1017.14 1017.40 1017.57 1017.48 1017.66 1017.60 1017.38 1016.73 1016.66 1016.90
1001.22 1000.82 1000.46 1000.32 1000.66 1001.04 1002.79 1003.00 1002.26 1002.51 1003.17 1002.62 1003.17 1005.48 1005.81 1005.44 1005.63 1006.37 1007.13 1007.82 1008.41 1009.23 1010.24 1011.25 1012.09 1012.65 1013.06 1013.48 1014.09 1014.77 1015.29 1015.69 1016.10 1016.52 1016.89 1017.35 1017.58 1017.70 1017.59 1017.52 1017.32 1016.80 1016.32 1016.49
1000.17 999.92 999.66 999.42 999.04 999.45 1000.08 1000.80 1000.23 1000.58 1001.65 1002.13 1002.46 1003.77 1004.43 1004.77 1005.08 1005.34 1006.02 1006.64 1007.27 1008.16 1009.13 1010.11 1010.90 1011.67 1012.35 1012.94 1013.47 1014.04 1014.66 1015.17 1015.61 1016.16 1016.47 1016.95 1017.28 1017.31 1017.25 1017.34 1017.18 1016.65 1016.29 1016.02
999.83 999.14 998.83 998.54 998.05 998.04 998.45 999.45 1000.01 1000.51 1001.65 1002.37 1002.08 1002.50 1003.30 1003.33 1003.23 1003.91 1004.61 1005.29 1006.11 1007.28 1008.29 1009.16 1010.01 1010.92 1011.57 1012.16 1012.85 1013.49 1014.20 1014.64 1015.09 1015.56 1016.01 1016.47 1016.83 1017.08 1017.18 1017.18 1017.23 1016.76 1016.35 1016.18
999.46 998.81 998.07 997.78 997.88 997.57 998.07 999.52 1000.91 1002.03 1002.78 1002.49 1001.22 1001.63 1000.90 1001.21 1001.30 1001.95 1003.07 1004.09 1004.93 1006.02 1007.33 1008.41 1009.32 1010.10 1010.81 1011.36 1012.01 1012.78 1013.48 1014.00 1014.43 1015.06 1015.59 1015.93 1016.29 1016.55 1016.70 1016.83 1017.04 1017.01 1016.71 1016.51
999.20 998.62 997.39 996.86 997.34 997.66 998.31 999.45 1000.69 1002.07 1002.71 1001.97 1000.88 1000.29 999.21 999.04 999.67 1000.41 1001.29 1002.44 1003.80 1004.92 1006.06 1007.23 1008.16 1009.02 1009.80 1010.53 1011.17 1011.87 1012.66 1013.42 1013.88 1014.41 1014.99 1015.39 1015.69 1015.89 1016.10 1016.41 1016.66 1016.83 1016.72 1016.63
998.60 997.94 997.15 996.70 996.68 997.17 997.98 998.88 999.80 1001.26 1001.68 1002.17 1000.56 999.42 998.35 998.46 999.11 999.72 1000.76 1001.76 1002.78 1003.82 1004.83 1005.97 1007.06 1007.89 1008.80 1009.61 1010.20 1010.93 1011.88 1012.66 1013.24 1013.81 1014.47 1014.87 1015.12 1015.43 1015.76 1016.01 1016.18 1016.30 1016.45 1016.55
997.92 998.28 997.12 996.54 996.57 996.44 997.22 998.44 999.73 1000.95 1002.29 1002.46 1001.25 1000.28 998.93 998.86 998.87 999.28 1000.00 1000.83 1001.72 1002.59 1003.56 1004.64 1005.82 1006.84 1007.85 1008.60 1009.48 1010.37 1011.15 1011.88 1012.59 1013.29 1013.84 1014.28 1014.63 1015.01 1015.38 1015.66 1015.78 1015.89 1015.98 1016.06
997.42 997.80 997.15 996.76 996.01 996.67 997.18 998.14 999.46 1000.54 1001.67 1002.36 1001.80 1000.54 998.57 998.20 998.12 998.60 999.10 999.78 1000.68 1001.61 1002.40 1003.33 1004.41 1005.57 1006.68 1007.64 1008.58 1009.49 1010.49 1011.36 1012.12 1012.69 1013.20 1013.71 1014.14 1014.53 1014.84 1015.05 1015.17 1015.37 1015.65 1015.96
996.11 996.86 997.34 996.20 995.79 996.10 996.70 997.93 999.30 1001.07 1001.61 1001.76 1001.20 999.76 997.54 998.12 997.63 997.63 998.13 999.04 999.73 1000.41 1001.38 1002.43 1003.33 1004.56 1005.73 1006.55 1007.48 1008.29 1009.48 1010.52 1011.18 1011.73 1012.42 1013.01 1013.47 1013.79 1014.16 1014.57 1014.94 1015.21 1015.60 1015.72
995.41 996.43 997.16 996.72 996.07 995.66 996.15 997.45 998.42 999.59 1000.52 1000.87 1001.06 999.10 996.37 997.05 997.21 997.31 997.80 998.65 999.29 999.99 1000.85 1001.80 1002.87 1003.84 1004.80 1005.79 1006.63 1007.48 1008.52 1009.42 1010.18 1010.90 1011.69 1012.31 1012.74 1013.25 1013.85 1014.37 1014.72 1015.06 1015.35 1015.76
994.86 995.77 996.32 996.21 995.56 995.69 996.22 996.89 997.59 998.65 999.90 1000.00 999.69 998.99 997.50 997.00 997.15 997.52 997.76 998.18 999.06 999.80 1000.42 1001.35 1002.53 1003.15 1003.96 1004.93 1005.81 1006.80 1007.75 1008.56 1009.48 1010.36 1011.17 1011.79 1012.44 1013.07 1013.56 1014.07 1014.56 1014.94 1015.37 1015.82
994.14 994.88 995.68 995.62 995.31 995.11 995.22 995.99 996.69 997.46 998.11 999.08 998.25 998.40 997.36 997.07 997.19 997.38 997.83 998.36 999.12 1000.07 1000.68 1001.25 1002.16 1003.03 1003.96 1004.85 1005.60 1006.35 1007.25 1008.17 1009.16 1010.20 1010.98 1011.80 1012.48 1013.18 1013.83 1014.31 1014.83 1015.26 1015.74 1016.28
993.23 994.45 995.36 995.73 995.30 994.70 994.52 994.57 995.37 996.13 996.59 997.20 996.98 996.95 996.02 995.94 996.69 997.17 997.70 998.56 999.42 999.96 1000.61 1001.30 1002.24 1003.11 1003.94 1004.69 1005.47 1006.26 1007.24 1008.16 1009.02 1010.15 1011.19 1012.04 1012.81 1013.54 1014.22 1014.76 1015.35 1015.88 1016.54 1016.91
992.52 993.98 995.12 995.66 995.35 995.20 994.76 993.86 994.01 994.80 995.16 995.65 995.93 995.92 995.72 996.12 996.60 997.07 997.75 998.33 999.16 999.98 1000.79 1001.62 1002.43 1003.26 1004.03 1004.79 1005.49 1006.35 1007.27 1008.30 1009.37 1010.45 1011.55 1012.44 1013.15 1013.98 1014.53 1015.15 1015.80 1016.51 1017.01 1017.58
991.81 993.52 994.82 995.69 995.79 995.23 993.75 992.96 993.09 993.63 994.15 994.34 994.69 994.85 995.43 995.32 996.34 996.48 996.84 997.76 998.70 999.55 1000.64 1001.58 1002.48 1003.46 1004.08 1004.86 1005.90 1006.89 1007.92 1008.83 1009.77 1010.86 1011.79 1012.57 1013.39 1014.19 1014.90 1015.63 1016.30 1016.78 1017.24 1017.66
990.93 992.68 994.35 995.33 995.34 994.73 993.65 993.01 993.15 993.38 993.58 993.51 994.03 994.10 994.73 995.14 995.57 996.50 996.27 997.01 997.94 998.89 999.80 1000.64 1001.62 1002.77 1003.97 1004.97 1006.11 1007.30 1008.60 1009.57 1010.45 1011.32 1012.10 1012.86 1013.60 1014.50 1015.38 1016.14 1016.72 1017.07 1017.42 1017.76
991.07 991.64 993.76 994.91 995.35 993.95 993.42 992.65 992.67 993.00 993.24 992.96 993.25 993.61 994.17 994.92 996.51 996.35 996.63 996.66 997.59 998.70 999.52 1000.66 1002.01 1003.18 1004.15 1005.27 1006.22 1007.48 1008.88 1009.85 1010.79 1011.65 1012.46 1013.11 1013.97 1015.01 1015.84 1016.42 1016.86 1017.18 1017.42 1017.76
991.81 992.51 993.36 994.51 994.80 993.69 992.55 992.41 992.77 993.49 993.72 992.25 992.70 993.25 993.56 994.95 996.05 995.67 996.07 996.97 997.38 998.35 999.73 1000.75 1001.95 1003.12 1004.28 1005.36 1006.35 1007.74 1008.81 1009.93 1010.82 1011.78 1012.73 1013.69 1014.58 1015.39 1015.98 1016.51 1016.97 1017.43 1017.73 1018.00
992.19 992.85 993.55 994.02 994.27 993.67 992.24 992.25 992.66 993.16 992.58 992.07 992.45 992.89 993.56 994.19 995.36 996.30 996.81 997.63 998.27 999.30 1000.29 1001.16 1002.43 1003.91 1004.92 1005.85 1006.77 1008.12 1009.23 1009.86 1010.93 1012.10 1013.26 1014.27 1014.94 1015.53 1016.14 1016.76 1017.35 1017.69 1017.91 1018.26
992.52 992.54 993.00 993.10 993.24 992.63 992.45 992.37 992.12 991.95 992.24 991.64 991.92 992.54 993.26 993.98 995.15 996.22 997.48 998.21 998.83 999.49 1000.66 1001.54 1002.77 1004.44 1005.53 1006.35 1007.07 1008.38 1009.67 1010.26 1011.40 1012.55 1013.70 1014.66 1015.27 1015.89 1016.54 1017.27 1017.80 1017.95 1018.11 1018.58
992.23 992.05 993.05 993.02 992.74 992.85 992.44 992.31 992.12 991.72 991.36 990.92 991.30 991.95 992.81 993.97 995.15 996.32 997.39 998.39 999.25 1000.11 1001.10 1002.39 1003.35 1004.73 1005.87 1006.73 1007.65 1008.41 1009.81 1010.66 1011.71 1012.91 1013.95 1014.80 1015.43 1016.20 1016.75 1017.42 1018.06 1018.48 1018.53 1018.80
993.30 992.57 992.91 993.44 993.08 992.91 992.59 992.53 992.36 992.04 991.57 991.69 991.58 992.08 992.96 993.74 994.95 996.23 997.40 998.32 999.41 1000.38 1001.78 1002.83 1003.87 1005.04 1005.98 1006.90 1007.94 1008.97 1010.00 1010.83 1012.06 1013.09 1014.06 1014.94 1015.73 1016.50 1017.32 1018.09 1018.31 1018.39 1018.66 1018.50
994.22 992.93 993.07 993.33 993.31 993.15 992.83 992.61 992.66 992.33 992.08 991.91 992.11 992.51 993.06 993.71 995.03 996.31 997.75 998.48 999.29 1000.55 1001.95 1003.18 1004.39 1005.46 1006.51 1007.11 1008.25 1009.28 1010.18 1010.88 1011.99 1013.23 1014.17 1015.02 1015.98 1016.89 1017.52 1018.03 1018.78 1018.91 1018.84 1018.82
Thickness
5841 5814 5801 5818 5830 5830 5810 5802 5793 5818 5830 5827 5825 5818 5821 5830 5828 5817 5813 5809 5806 5808 5811 5810 5809 5810 5808 5806 5802 5798 5796 5795 5789 5786 5783 5783 5782 5785 5788 5785 5782 5782 5778 5776
5818 5806 5839 5851 5836 5838 5811 5791 5795 5817 5840 5825 5830 5824 5832 5837 5837 5834 5827 5820 5819 5816 5813 5813 5814 5814 5813 5810 5807 5804 5803 5800 5797 5794 5793 5792 5791 5791 5790 5787 5785 5787 5788 5784
5808 5829 5854 5849 5844 5823 5814 5805 5801 5817 5845 5850 5841 5813 5825 5842 5848 5844 5841 5839 5836 5828 5818 5818 5818 5820 5820 5817 5814 5813 5811 5807 5804 5802 5800 5798 5796 5794 5790 5788 5788 5793 5792 5786
5822 5849 5846 5845 5835 5839 5803 5841 5846 5841 5832 5814 5854 5775 5815 5836 5838 5843 5841 5841 5841 5838 5833 5826 5822 5822 5825 5825 5824 5820 5816 5813 5811 5808 5803 5798 5793 5789 5791 5790 5790 5793 5795 5792
5820 5834 5837 5837 5849 5864 5838 5856 5873 5877 5849 5852 5849 5813 5820 5839 5829 5839 5845 5848 5850 5848 5843 5836 5835 5834 5834 5833 5830 5827 5823 5820 5817 5813 5809 5803 5797 5797 5797 5793 5791 5796 5798 5797
5832 5863 5855 5853 5874 5882 5890 5872 5872 5868 5846 5799 5835 5827 5818 5833 5846 5851 5858 5859 5859 5854 5851 5849 5849 5844 5841 5841 5837 5833 5828 5824 5822 5818 5814 5808 5803 5800 5796 5794 5790 5791 5794 5795
5820 5833 5860 5871 5853 5875 5879 5846 5793 5788 5789 5788 5849 5834 5834 5868 5877 5874 5867 5867 5868 5867 5859 5854 5850 5848 5847 5845 5843 5839 5834 5829 5828 5823 5818 5814 5810 5806 5802 5798 5792 5789 5787 5787
5788 5785 5840 5868 5855 5847 5854 5843 5794 5782 5781 5810 5857 5825 5856 5896 5899 5896 5890 5885 5879 5874 5871 5864 5862 5858 5856 5853 5851 5847 5841 5834 5832 5828 5822 5819 5815 5812 5808 5802 5797 5791 5787 5784
5791 5799 5859 5864 5875 5872 5849 5834 5858 5824 5836 5819 5846 5872 5893 5900 5893 5894 5887 5886 5882 5882 5880 5875 5871 5867 5863 5860 5858 5854 5846 5840 5836 5831 5826 5822 5819 5815 5810 5806 5802 5798 5793 5788
5817 5787 5842 5862 5872 5877 5859 5870 5822 5814 5789 5790 5825 5837 5837 5866 5880 5889 5888 5889 5890 5892 5890 5886 5880 5876 5872 5869 5865 5859 5853 5845 5840 5835 5830 5826 5822 5817 5813 5808 5805 5803 5799 5794
5829 5808 5822 5850 5842 5836 5843 5836 5841 5834 5816 5784 5785 5817 5886 5882 5891 5891 5895 5900 5898 5897 5898 5896 5892 5887 5880 5876 5870 5865 5856 5848 5842 5837 5833 5828 5824 5820 5815 5811 5809 5806 5799 5793
5835 5814 5793 5824 5861 5873 5858 5844 5835 5789 5801 5811 5811 5812 5903 5893 5903 5908 5906 5906 5909 5909 5906 5903 5901 5894 5886 5882 5876 5871 5863 5853 5849 5845 5838 5832 5829 5825 5820 5815 5809 5804 5797 5795
5835 5806 5780 5799 5838 5857 5844 5849 5849 5840 5830 5808 5797 5816 5911 5905 5909 5913 5909 5906 5911 5911 5907 5905 5901 5897 5891 5886 5882 5876 5869 5862 5856 5849 5842 5837 5833 5828 5821 5814 5809 5804 5798 5790
5840 5815 5794 5785 5812 5842 5827 5841 5849 5838 5804 5818 5821 5841 5883 5898 5897 5905 5909 5913 5909 5911 5905 5903 5896 5899 5896 5891 5886 5879 5873 5869 5861 5853 5845 5838 5831 5826 5820 5814 5807 5800 5793 5783
5827 5800 5813 5822 5841 5851 5847 5843 5847 5832 5842 5813 5846 5848 5878 5890 5898 5904 5910 5910 5909 5900 5897 5899 5894 5895 5889 5885 5884 5880 5874 5868 5862 5852 5843 5834 5828 5822 5814 5807 5799 5792 5784 5775
5834 5796 5814 5808 5835 5848 5844 5855 5853 5851 5855 5851 5862 5864 5899 5910 5910 5902 5905 5905 5899 5899 5901 5899 5894 5892 5887 5883 5880 5876 5870 5864 5860 5847 5837 5830 5822 5814 5806 5798 5789 5781 5772 5763
5820 5806 5794 5787 5822 5827 5806 5844 5853 5855 5861 5866 5844 5868 5901 5899 5901 5895 5896 5900 5897 5894 5896 5895 5892 5887 5883 5880 5877 5870 5866 5860 5851 5841 5831 5822 5815 5806 5799 5790 5781 5770 5761 5751
5814 5802 5798 5790 5798 5761 5827 5869 5873 5864 5869 5876 5880 5889 5896 5900 5900 5902 5909 5901 5898 5897 5895 5895 5892 5885 5882 5878 5871 5865 5857 5850 5842 5833 5824 5817 5809 5799 5790 5780 5771 5763 5753 5745
5832 5813 5774 5772 5781 5808 5829 5850 5856 5848 5851 5882 5879 5891 5901 5908 5907 5899 5909 5911 5905 5902 5902 5904 5899 5890 5880 5873 5866 5856 5845 5838 5831 5823 5816 5809 5801 5791 5779 5769 5761 5754 5745 5739
5821 5827 5794 5775 5767 5763 5819 5859 5878 5876 5820 5883 5888 5889 5892 5900 5855 5875 5903 5908 5906 5901 5899 5901 5892 5882 5874 5866 5861 5849 5837 5830 5822 5814 5806 5801 5791 5779 5768 5760 5753 5746 5739 5731
5780 5790 5781 5768 5767 5799 5849 5867 5874 5809 5811 5893 5889 5892 5901 5875 5879 5902 5909 5902 5902 5897 5892 5893 5887 5876 5867 5860 5853 5840 5832 5823 5816 5807 5799 5789 5778 5768 5760 5752 5745 5736 5730 5723
5770 5765 5760 5767 5763 5761 5854 5859 5824 5844 5872 5891 5892 5890 5892 5898 5893 5893 5894 5890 5889 5884 5884 5884 5873 5860 5855 5849 5842 5829 5820 5817 5808 5798 5787 5776 5768 5760 5751 5742 5734 5727 5721 5714
5765 5783 5771 5778 5777 5823 5854 5855 5872 5873 5866 5883 5887 5890 5887 5890 5891 5889 5883 5880 5879 5879 5876 5875 5863 5848 5841 5837 5832 5819 5809 5807 5797 5786 5774 5765 5756 5748 5740 5731 5723 5719 5714 5704
5794 5804 5777 5784 5810 5822 5840 5851 5859 5872 5871 5886 5893 5894 5895 5886 5886 5878 5875 5870 5868 5868 5864 5857 5849 5837 5828 5825 5819 5813 5802 5795 5786 5774 5764 5754 5746 5738 5730 5720 5713 5706 5701 5694
5770 5790 5780 5779 5799 5815 5828 5840 5851 5856 5869 5873 5881 5882 5878 5880 5877 5873 5869 5866 5864 5860 5851 5845 5837 5828 5820 5815 5807 5801 5793 5785 5773 5764 5755 5745 5735 5724 5715 5707 5703 5700 5693 5690
5769 5777 5764 5759 5795 5801 5814 5835 5844 5845 5856 5865 5867 5867 5876 5878 5869 5867 5858 5860 5858 5851 5843 5833 5825 5818 5809 5805 5797 5790 5783 5776 5766 5755 5745 5735 5725 5714 5706 5701 5691 5688 5684 5678